User: anonymous   Login
Location: Saint John
(45.2733°N, 66.0633°W)
Time: 00:04:19
(UTC-04:00)
Language:

Hubble Space Telescope - Orbit

View from above orbital plane
View from above orbital plane
View from above satellite
View from above satellite

Ground track
Ground track

The orbit data is extracted from the following two-line orbital elements,

1 20580U 90037B   21339.53703397  .00000931  00000-0  45086-4 0  9999
2 20580  28.4714  12.9077 0002926 104.9801  20.9538 15.09866447536877
Epoch (UTC): 05 December 2021 12:53:19
Eccentricity: 0.0002926
inclination: 28.4714°
perigee height: 534 km
apogee height: 538 km
right ascension of ascending node: 12.9077°
argument of perigee: 104.9801°
revolutions per day: 15.09866447
mean anomaly at epoch: 20.9538°
orbit number at epoch: 53687

The dashed part of the orbit path shows where the satellite is in the earth's shadow,  

DLR